Regional Weather Roundup
Issued by NWS State College, PA

Home | Current Version | Previous Version | Text Only | Print | Product List | Glossary On
Versions: 1 2 3 4 5 6 7 8 9 10 11 12 13 14 15 16 17 18 19 20 21 22 23 24 25 26 27 28 29 30 31 32 33 34 35 36 37 38 39 40 41 42 43 44 45 46 47 48 49 50
000
ASUS41 KCTP 210610
RWRCTP

REGIONAL WEATHER ROUNDUP
NATIONAL WEATHER SERVICE STATE COLLEGE PA
100 AM EST TUE NOV 21 2017

Note: "fair" indicates few or no clouds below 12,000 feet with no
significant weather and/or obstructions to visibility.

* = STATION THAT DOES NOT REPORT PRECIPITATION /E.G. RAIN...SNOW...ETC/
    THUNDER OR FOG.

PAZ002>004-007>009-013>016-020>023-029>032-210700-
WESTERN PENNSYLVANIA

CITY           SKY/WX    TMP DP  RH WIND       PRES   REMARKS
ERIE           CLEAR     42  21  43 S22G31    29.88F
MEADVILLE      CLEAR     35  22  58 S12       29.94S
FRANKLIN*      CLEAR     33  21  61 S10       29.96F
NEW CASTLE     FAIR      36  22  56 VRB3      29.98F
BEAVER COUNTY  NOT AVBL
BUTLER*        CLEAR     34  21  59 S6        29.99F
PITTSBURGH INT PTCLDY    33  23  66 S6        29.99F
PITTSBURGH     CLEAR     36  19  50 S10       30.00F
INDIANA*       CLEAR     28  25  86 CALM      30.04F
LATROBE        CLEAR     32  21  64 S6        30.02F
WASHINGTON CO* CLOUDY    34  21  59 S7        30.03F
$$

PAZ004>006-010>012-017>019-024>028-033>037-041-042-045-046-049>053-210700-
CENTRAL PENNSYLVANIA

CITY           SKY/WX    TMP DP  RH WIND       PRES   REMARKS
BRADFORD       CLOUDY    34  21  59 SW8       29.95F
DUBOIS         CLOUDY    37  19  48 SW9       29.98F
CLEARFIELD     CLOUDY    31  24  75 SW6       30.02F
JOHNSTOWN      CLEAR     37  18  46 S9        30.01F
ALTOONA        CLOUDY    39  21  48 SW3       30.05F
STATE COLLEGE  CLOUDY    33  23  64 W5        30.04F
WILLIAMSPORT   CLEAR     30  26  85 CALM      30.07F
SELINSGROVE    CLEAR     27  25  92 CALM      30.09F
FT INDIANTOWN  CLOUDY    28  25  91 CALM      30.11F
CAPITAL CITY   CLOUDY    35  23  61 CALM      30.11F
HARRISBURG     CLOUDY    43  24  47 SW12      30.11F
YORK           CLOUDY    42  23  46 SW7       30.11F
$$

PAZ038>040-043-044-047-048-054-055-060>062-067>071-210700-
EASTERN PENNSYLVANIA

CITY           SKY/WX    TMP DP  RH WIND       PRES   REMARKS
SCRANTON       CLEAR     36  23  59 CALM      30.06S
MOUNT POCONO   CLEAR     34  21  59 W8        30.04F
ALLENTOWN      CLEAR     29  22  75 N3        30.12S
QUAKERTOWN*    PTCLDY    28  25  86 CALM      30.13F
READING        CLOUDY    38  24  57 CALM      30.12F
LANCASTER      CLOUDY    30  26  85 NE3       30.12F
COATESVILLE    CLOUDY    41  23  48 VRB6      30.14S
POTTSTOWN      CLOUDY    36  21  54 CALM      30.15F
BLUE BELL      PTCLDY    32  27  80 CALM      30.16S
DOYLESTOWN     PTCLDY    35  23  61 S3        30.13S
WILLOW GROVE   NOT AVBL
NORTH PHILA    CLOUDY    40  28  62 S5        30.17S
PHILADELPHIA   CLOUDY    42  28  57 SW9       30.17S
$$



USA.gov is the U.S. government's official web portal to all federal, state and local government web resources and services.